User: anonymous
Location: Unspecified
(0.0000°N, 0.0000°E)
Time: 23:56:47
(UTC+00:00)
Language:

Aussat K2 - Orbit

View from above orbital plane
View from above orbital plane
View from above satellite
View from above satellite

Ground track
Ground track

The orbit data is extracted from the following two-line orbital elements,

1 16275U 85109C   14273.79121274 -.00000269  00000-0  00000+0 0  5256
2 16275 014.7159 019.3393 0006128 174.5504 201.4842 00.99937289 95338
Epoch (UTC): 30 September 2014 18:59:20
Eccentricity: 0.0006128
inclination: 14.7159°
perigee height: 35854 km
apogee height: 35906 km
right ascension of ascending node: 19.3393°
argument of perigee: 174.5504°
revolutions per day: 0.99937289
mean anomaly at epoch: 201.4842°
orbit number at epoch: 9533

The dashed part of the orbit path shows where the satellite is in the earth's shadow,  

DLR